• In Belarus
  • List of Countries
  • For 7 days
  • Water Temperature
  • Satellite Maps
  • Weather Map
  • Weather Widgets
  • user-avatar
    Login

    Hourly Weather Olszamowice

    Today, 17 October, Wednesday

    Time Temperature Precipitation Wind Pressure Humidity
    00:00 +13°C° 0 mm 1 mps 744 mmHg 52%
    01:00 +13°C° 0 mm 1 mps 744 mmHg 54%
    02:00 +13°C° 0 mm 1 mps 744 mmHg 54%
    03:00 +13°C° 0 mm 1 mps 743 mmHg 55%
    04:00 +12°C° 0 mm 1 mps 743 mmHg 55%
    05:00 +12°C° 0 mm 1 mps 743 mmHg 56%
    06:00 +12°C° 0 mm 1 mps 744 mmHg 56%
    07:00 +12°C° 0 mm 1 mps 744 mmHg 57%
    08:00 +14°C° 0 mm 1 mps 744 mmHg 52%
    09:00 +16°C° 0 mm 1 mps 744 mmHg 46%
    10:00 +19°C° 0 mm 1 mps 744 mmHg 41%
    11:00 +20°C° 0 mm 1 mps 743 mmHg 38%
    12:00 +21°C° 0 mm 1 mps 743 mmHg 36%
    13:00 +22°C° 0 mm 1 mps 743 mmHg 34%
    14:00 +22°C° 0 mm 1 mps 743 mmHg 37%
    15:00 +21°C° 0 mm 1 mps 743 mmHg 40%
    16:00 +20°C° 0 mm 1 mps 742 mmHg 43%
    17:00 +19°C° 0 mm 1 mps 742 mmHg 44%
    18:00 +17°C° 0 mm 2 mps 742 mmHg 45%
    19:00 +17°C° 0 mm 2 mps 743 mmHg 47%
    20:00 +16°C° 0 mm 2 mps 743 mmHg 47%
    21:00 +16°C° 0 mm 1 mps 742 mmHg 48%
    22:00 +16°C° 0 mm 1 mps 742 mmHg 48%
    23:00 +15°C° 0 mm 1 mps 742 mmHg 50%

    Tomorrow, 18 October, Thursday

    Time Temperature Precipitation Wind Pressure Humidity
    00:00 +15°C° 0 mm 1 mps 742 mmHg 51%
    01:00 +15°C° 0 mm 1 mps 742 mmHg 53%
    02:00 +14°C° 0 mm 1 mps 742 mmHg 56%
    03:00 +14°C° 0 mm 1 mps 742 mmHg 59%
    04:00 +14°C° 0 mm 1 mps 741 mmHg 62%
    05:00 +14°C° 0 mm 1 mps 741 mmHg 63%
    06:00 +14°C° 0 mm 1 mps 741 mmHg 65%
    07:00 +14°C° 0 mm 1 mps 741 mmHg 66%
    08:00 +15°C° 0 mm 1 mps 742 mmHg 63%
    09:00 +16°C° 0 mm 1 mps 742 mmHg 59%
    10:00 +18°C° 0 mm 1 mps 742 mmHg 56%
    11:00 +19°C° 0 mm 1 mps 741 mmHg 53%
    12:00 +20°C° 0 mm 1 mps 741 mmHg 51%
    13:00 +20°C° 0 mm 2 mps 741 mmHg 48%
    14:00 +20°C° 0 mm 1 mps 741 mmHg 51%
    15:00 +20°C° 0 mm 1 mps 741 mmHg 54%
    16:00 +19°C° 0 mm 1 mps 740 mmHg 56%
    17:00 +18°C° 0 mm 1 mps 741 mmHg 59%
    18:00 +16°C° 0 mm 1 mps 741 mmHg 62%
    19:00 +15°C° 0 mm 1 mps 741 mmHg 64%
    20:00 +15°C° 0 mm 1 mps 741 mmHg 67%
    21:00 +14°C° 0 mm 1 mps 741 mmHg 69%
    22:00 +14°C° 0 mm 1 mps 741 mmHg 71%
    23:00 +13°C° 0 mm 1 mps 741 mmHg 73%

    Day after tomorrow, 19 October, Friday

    Time Temperature Precipitation Wind Pressure Humidity
    00:00 +13°C° 0 mm 1 mps 742 mmHg 75%
    01:00 +13°C° 0 mm 1 mps 742 mmHg 77%
    02:00 +12°C° 0 mm 1 mps 742 mmHg 79%
    03:00 +12°C° 0 mm 1 mps 742 mmHg 81%
    04:00 +11°C° 0 mm 1 mps 742 mmHg 83%
    05:00 +10°C° 0 mm 2 mps 742 mmHg 84%
    06:00 +10°C° 0 mm 2 mps 742 mmHg 85%
    07:00 +10°C° 0 mm 2 mps 743 mmHg 86%
    08:00 +13°C° 0 mm 2 mps 743 mmHg 80%
    09:00 +14°C° 0 mm 2 mps 743 mmHg 74%
    10:00 +16°C° 0 mm 3 mps 743 mmHg 68%
    11:00 +16°C° 0 mm 3 mps 743 mmHg 65%
    12:00 +17°C° 0 mm 3 mps 743 mmHg 62%
    13:00 +18°C° 0 mm 3 mps 743 mmHg 59%
    14:00 +17°C° 0 mm 3 mps 744 mmHg 62%
    15:00 +16°C° 0 mm 3 mps 744 mmHg 65%
    16:00 +16°C° 0 mm 3 mps 744 mmHg 69%
    17:00 +14°C° 0 mm 3 mps 744 mmHg 72%
    18:00 +13°C° 0 mm 3 mps 744 mmHg 75%
    19:00 +12°C° 0 mm 3 mps 745 mmHg 78%
    20:00 +13°C° 0 mm 2 mps 745 mmHg 77%
    21:00 +12°C° 0 mm 2 mps 745 mmHg 76%
    22:00 +12°C° 0 mm 2 mps 745 mmHg 75%
    23:00 +12°C° 0 mm 2 mps 746 mmHg 75%

    20 October, Saturday

    Time Temperature Precipitation Wind Pressure Humidity
    00:00 +10°C° 0 mm 2 mps 746 mmHg 75%
    01:00 +10°C° 0 mm 2 mps 746 mmHg 75%
    02:00 +9°C° 0 mm 2 mps 746 mmHg 77%
    03:00 +9°C° 0 mm 2 mps 746 mmHg 80%
    04:00 +8°C° 0 mm 2 mps 746 mmHg 83%
    05:00 +8°C° 0 mm 2 mps 746 mmHg 84%
    06:00 +8°C° 0 mm 2 mps 747 mmHg 86%
    07:00 +7°C° 0 mm 2 mps 747 mmHg 87%
    08:00 +9°C° 0 mm 2 mps 747 mmHg 78%
    09:00 +10°C° 0 mm 3 mps 748 mmHg 69%
    10:00 +11°C° 0 mm 3 mps 748 mmHg 60%
    11:00 +12°C° 0 mm 3 mps 748 mmHg 56%
    12:00 +12°C° 0 mm 3 mps 748 mmHg 51%
    13:00 +13°C° 0 mm 3 mps 748 mmHg 47%
    14:00 +12°C° 0 mm 3 mps 748 mmHg 50%
    15:00 +12°C° 0 mm 3 mps 748 mmHg 52%
    16:00 +11°C° 0 mm 3 mps 748 mmHg 55%
    17:00 +10°C° 0 mm 2 mps 748 mmHg 60%
    18:00 +9°C° 0 mm 2 mps 748 mmHg 65%
    19:00 +8°C° 0 mm 2 mps 749 mmHg 70%
    20:00 +7°C° 0 mm 2 mps 749 mmHg 72%
    21:00 +7°C° 0 mm 2 mps 749 mmHg 75%
    22:00 +6°C° 0 mm 2 mps 750 mmHg 77%
    23:00 +6°C° 0 mm 2 mps 750 mmHg 79%

    21 October, Sunday

    Time Temperature Precipitation Wind Pressure Humidity
    00:00 +6°C° 0 mm 2 mps 750 mmHg 80%
    01:00 +5°C° 0 mm 2 mps 750 mmHg 82%
    02:00 +5°C° 0 mm 2 mps 750 mmHg 84%
    03:00 +5°C° 0 mm 2 mps 749 mmHg 86%
    04:00 +5°C° 0 mm 2 mps 749 mmHg 87%
    05:00 +5°C° 0 mm 2 mps 750 mmHg 88%
    06:00 +5°C° 0 mm 2 mps 750 mmHg 89%
    07:00 +5°C° 0 mm 2 mps 750 mmHg 90%
    08:00 +6°C° 0 mm 2 mps 750 mmHg 83%
    09:00 +8°C° 0 mm 2 mps 750 mmHg 76%
    10:00 +10°C° 0 mm 2 mps 750 mmHg 68%
    11:00 +10°C° 0 mm 2 mps 749 mmHg 66%
    12:00 +12°C° 0 mm 2 mps 749 mmHg 63%
    13:00 +12°C° 0 mm 2 mps 749 mmHg 60%
    14:00 +12°C° 0 mm 2 mps 748 mmHg 62%
    15:00 +12°C° 0 mm 2 mps 748 mmHg 64%
    16:00 +11°C° 0 mm 1 mps 748 mmHg 66%
    17:00 +10°C° 0 mm 1 mps 748 mmHg 70%
    18:00 +9°C° 0 mm 1 mps 748 mmHg 75%
    19:00 +8°C° 0 mm 1 mps 748 mmHg 79%
    20:00 +8°C° 0 mm 1 mps 748 mmHg 81%
    21:00 +8°C° 0 mm 1 mps 748 mmHg 82%
    22:00 +8°C° 0 mm 1 mps 747 mmHg 84%
    23:00 +7°C° 0 mm 1 mps 747 mmHg 85%

    22 October, Monday

    Time Temperature Precipitation Wind Pressure Humidity
    00:00 +7°C° 0 mm 1 mps 747 mmHg 86%
    01:00 +7°C° 0 mm 1 mps 746 mmHg 87%
    02:00 +7°C° 0 mm 1 mps 746 mmHg 87%
    03:00 +6°C° 0 mm 1 mps 746 mmHg 88%
    04:00 +6°C° 0 mm 1 mps 746 mmHg 89%
    05:00 +6°C° 0 mm 1 mps 746 mmHg 89%
    06:00 +6°C° 0 mm 1 mps 746 mmHg 89%
    07:00 +5°C° 0 mm 2 mps 746 mmHg 88%
    08:00 +7°C° 0 mm 2 mps 745 mmHg 79%
    09:00 +9°C° 0 mm 2 mps 745 mmHg 70%
    10:00 +12°C° 0 mm 2 mps 745 mmHg 62%
    11:00 +12°C° 0 mm 3 mps 745 mmHg 57%
    12:00 +13°C° 0 mm 3 mps 744 mmHg 52%
    13:00 +14°C° 0 mm 3 mps 744 mmHg 48%
    14:00 +13°C° 0 mm 3 mps 744 mmHg 50%
    15:00 +12°C° 0 mm 3 mps 744 mmHg 53%
    16:00 +12°C° 0 mm 2 mps 743 mmHg 55%
    17:00 +12°C° 0 mm 2 mps 743 mmHg 61%
    18:00 +10°C° 0 mm 2 mps 743 mmHg 66%
    19:00 +9°C° 0 mm 2 mps 743 mmHg 72%
    20:00 +9°C° 0.1 mm 2 mps 743 mmHg 77%
    21:00 +8°C° 0.1 mm 2 mps 743 mmHg 81%
    22:00 +8°C° 0.1 mm 3 mps 743 mmHg 85%
    23:00 +8°C° 0.1 mm 3 mps 743 mmHg 85%
    Show more